FW4485 Weather Reports


time (UTC)temp
C
wind
direction
speed
KPH
gust
KPH
rain 1hr
cm
rain 24hr
cm
rain mn
cm
humidity
%
barometer
mb
20260510201521 29 144 1.6 4.8 0.00 0.00 0.00 26 1014.7
20260510200026 28 37 1.6 8.0 0.00 0.00 0.00 28 1014.9
20260510194511 28 1 3.2 4.8 0.00 0.00 0.00 26 1014.9
20260510193011 28 243 3.2 6.4 0.00 0.00 0.00 32 1015.1
20260510191522 28 110 1.6 6.4 0.00 0.00 0.00 28 1015.3
20260510190031 28 305 1.6 8.0 0.00 0.00 0.00 31 1015.3
20260510184532 28 244 3.2 8.0 0.00 0.00 0.00 30 1015.2
20260510183026 28 356 3.2 4.8 0.00 0.00 0.00 31 1015.5
20260510181517 28 272 1.6 6.4 0.00 0.00 0.00 36 1015.7
20260510180026 27 214 1.6 8.0 0.00 0.00 0.00 31 1015.8
20260510174524 28 217 1.6 9.7 0.00 0.00 0.00 32 1016.0
20260510173026 27 258 1.6 6.4 0.00 0.00 0.00 27 1016.1
20260510171512 27 235 3.2 6.4 0.00 0.00 0.00 25 1016.5
20260510170017 27 50 3.2 6.4 0.00 0.00 0.00 27 1016.2
20260510164537 27 331 1.6 8.0 0.00 0.00 0.00 25 1016.4
20260510163026 27 360 3.2 8.0 0.00 0.00 0.00 30 1016.5
20260510161526 26 221 1.6 8.0 0.00 0.00 0.00 35 1016.5
20260510160037 26 186 1.6 8.0 0.00 0.00 0.00 35 1016.6
20260510154516 26 92 0.0 11.3 0.00 0.00 0.00 37 1016.8
20260510153028 25 32 4.8 8.0 0.00 0.00 0.00 42 1017.0
20260510151525 25 53 1.6 8.0 0.00 0.00 0.00 42 1017.0
20260510150026 24 7 3.2 8.0 0.00 0.00 0.00 44 1017.0
20260510144528 23 315 3.2 8.0 0.00 0.00 0.00 46 1016.9
20260510143018 23 18 3.2 6.4 0.00 0.00 0.00 46 1016.8
20260510141523 22 345 3.2 6.4 0.00 0.00 0.00 49 1017.0
20260510140028 21 297 1.6 4.8 0.00 0.00 0.00 58 1017.1
20260510134530 20 163 0.0 4.8 0.00 0.00 0.00 63 1017.0
20260510133029 18 232 1.6 3.2 0.00 0.00 0.00 67 1017.0
20260510131521 17 143 0.0 1.6 0.00 0.00 0.00 74 1017.0
20260510130029 16 232 0.0 1.6 0.00 0.00 0.00 78 1016.8
20260510124538 15 172 0.0 1.6 0.00 0.00 0.00 83 1016.7
20260510123028 13 347 0.0 1.6 0.00 0.00 0.00 89 1016.7
20260510121528 12 340 0.0 1.6 0.00 0.00 0.00 94 1016.5
20260510120028 11 235 0.0 0.0 0.00 0.00 0.00 95 1016.1
20260510114505 11 235 0.0 4.8 0.00 0.00 0.00 95 1015.9
20260510113013 10 235 0.0 0.0 0.00 0.00 0.00 95 1015.6
20260510111515 10 235 0.0 0.0 0.00 0.00 0.00 95 1015.4
20260510110018 10 235 0.0 0.0 0.00 0.00 0.00 95 1015.2
20260510104527 10 235 0.0 1.6 0.00 0.00 0.00 95 1015.1
20260510103006 9 235 0.0 1.6 0.00 0.00 0.00 95 1014.7
20260510101513 10 235 0.0 1.6 0.00 0.00 0.00 94 1014.5
20260510100019 10 235 0.0 1.6 0.00 0.00 0.00 94 1014.3
20260510094523 10 232 0.0 1.6 0.00 0.00 0.00 94 1014.3
20260510093026 10 198 0.0 0.0 0.00 0.00 0.00 94 1014.2
20260510091545 10 198 0.0 0.0 0.00 0.00 0.00 94 1014.1
20260510090014 10 190 0.0 0.0 0.00 0.00 0.00 94 1014.1
20260510084517 11 190 0.0 0.0 0.00 0.00 0.00 94 1013.9
20260510083023 11 190 0.0 0.0 0.00 0.00 0.00 94 1013.8
20260510081535 11 190 0.0 0.0 0.00 0.00 0.00 94 1013.6
20260510080027 11 190 0.0 0.0 0.00 0.00 0.00 94 1013.3
20260510074516 11 190 0.0 0.0 0.00 0.00 0.00 93 1013.2
20260510073027 11 190 0.0 0.0 0.00 0.00 0.00 93 1013.2
20260510071533 12 190 0.0 0.0 0.00 0.00 0.00 93 1013.2
20260510070034 12 190 0.0 0.0 0.00 0.00 0.00 93 1013.0
20260510064552 12 190 0.0 0.0 0.00 0.00 0.00 93 1013.0
20260510063022 12 190 0.0 0.0 0.00 0.00 0.00 93 1013.1
20260510061532 13 190 0.0 0.0 0.00 0.00 0.00 93 1012.9
20260510060032 13 190 0.0 0.0 0.00 0.00 0.00 93 1013.1
20260510054509 13 190 0.0 0.0 0.00 0.00 0.00 92 1013.0
20260510053016 13 190 0.0 0.0 0.00 0.00 0.00 92 1013.1
20260510051516 13 190 0.0 0.0 0.00 0.00 0.00 92 1013.3
20260510050024 14 190 0.0 1.6 0.00 0.00 0.00 91 1013.4
20260510044531 14 210 0.0 1.6 0.00 0.00 0.00 91 1013.3
20260510043008 15 210 0.0 0.0 0.00 0.00 0.00 90 1013.2
20260510041515 15 210 0.0 1.6 0.00 0.00 0.00 90 1013.2
20260510040018 15 210 0.0 0.0 0.00 0.00 0.00 90 1013.2
20260510034520 15 210 0.0 0.0 0.00 0.00 0.00 90 1013.3
20260510033025 15 210 0.0 0.0 0.00 0.00 0.00 90 1013.3
20260510031510 15 210 0.0 0.0 0.00 0.00 0.00 90 1013.3
20260510030011 15 210 0.0 0.0 0.00 0.00 0.00 89 1013.3
20260510024517 15 210 0.0 0.0 0.00 0.00 0.00 89 1013.1
20260510023022 16 210 0.0 0.0 0.00 0.00 0.00 88 1012.9
20260510021527 16 210 0.0 0.0 0.00 0.00 0.00 88 1012.7
20260510020028 16 210 0.0 0.0 0.00 0.00 0.00 86 1012.4
20260510014517 16 210 0.0 0.0 0.00 0.00 0.00 85 1012.4
20260510013022 17 210 0.0 0.0 0.00 0.00 0.00 83 1012.1
20260510011525 17 210 0.0 0.0 0.00 0.00 0.00 82 1011.8
20260510010028 17 210 0.0 0.0 0.00 0.00 0.00 79 1011.6
20260510004530 18 210 0.0 0.0 0.00 0.00 0.00 78 1011.4
20260510003016 18 210 0.0 1.6 0.00 0.00 0.00 76 1011.0
20260510001520 20 210 0.0 4.8 0.00 0.00 0.00 74 1010.9
20260510000030 20 134 0.0 4.8 0.00 0.00 0.00 72 1011.0
20260509234541 20 185 1.6 3.2 0.00 0.00 0.00 69 1010.8
20260509233040 21 203 0.0 4.8 0.00 0.00 0.00 67 1010.7
20260509231517 21 150 0.0 1.6 0.00 0.00 0.00 67 1010.5
20260509230024 22 72 3.2 4.8 0.00 0.00 0.00 63 1010.1
20260509224531 22 234 1.6 8.0 0.00 0.00 0.00 61 1009.9
20260509223032 22 108 0.0 6.4 0.00 0.00 0.00 61 1009.6
20260509221527 23 152 1.6 3.2 0.00 0.00 0.00 59 1009.8
20260509220025 23 219 1.6 6.4 0.00 0.00 0.00 57 1009.6
20260509214525 25 161 1.6 3.2 0.00 0.00 0.00 55 1009.8
20260509213027 25 245 3.2 8.0 0.00 0.00 0.00 54 1009.6
20260509211532 25 218 1.6 4.8 0.00 0.00 0.00 53 1009.6
20260509210023 25 239 1.6 4.8 0.00 0.00 0.00 55 1009.4
20260509204521 25 149 1.6 9.7 0.00 0.00 0.00 53 1009.2
20260509203034 25 345 1.6 6.4 0.00 0.00 0.00 50 1009.3